This is the latest recevied weather packets stored in our database for station/object OK2ILA-1. If no packets are shown the sender has not sent any weather packets the latest 10 day(s).
| Time | Temp. | Humidity | Pressure | Rain* | Wind** | Luminosity | Snow |
|---|---|---|---|---|---|---|---|
| 1777901974 | 24.44° C | 100% | 1014.6 hPa | 0 mm | - | - | - |
| 1777901254 | 24.44° C | 100% | 1014.6 hPa | 0 mm | - | - | - |
| 1777900533 | 25° C | 100% | 1014.7 hPa | 0 mm | - | - | - |
| 1777899812 | 25° C | 100% | 1014.9 hPa | 0 mm | - | - | - |
| 1777899092 | 25° C | 100% | 1014.9 hPa | 0 mm | - | - | - |
| 1777898371 | 24.44° C | 100% | 1014.9 hPa | 0 mm | - | - | - |
| 1777897650 | 25° C | 100% | 1015 hPa | 0 mm | - | - | - |
| 1777896930 | 25° C | 100% | 1015 hPa | 0 mm | - | - | - |
| 1777896209 | 25° C | 100% | 1015.1 hPa | 0 mm | - | - | - |
| 1777895488 | 24.44° C | 100% | 1015.2 hPa | 0 mm | - | - | - |
| 1777894767 | 24.44° C | 100% | 1015.5 hPa | 0 mm | - | - | - |
| 1777894047 | 23.89° C | 100% | 1015.5 hPa | 0 mm | - | - | - |
| 1777893326 | 23.89° C | 100% | 1015.6 hPa | 0 mm | - | - | - |
| 1777892605 | 23.89° C | 100% | 1015.7 hPa | 0 mm | - | - | - |
| 1777891885 | 23.89° C | 100% | 1015.8 hPa | 0 mm | - | - | - |
| 1777891164 | 24.44° C | 100% | 1016 hPa | 0 mm | - | - | - |
| 1777890443 | 23.89° C | 100% | 1016.1 hPa | 0 mm | - | - | - |
| 1777889723 | 24.44° C | 100% | 1016.2 hPa | 0 mm | - | - | - |
| 1777889002 | 23.89° C | 100% | 1016.3 hPa | 0 mm | - | - | - |
| 1777888281 | 22.78° C | 100% | 1016.4 hPa | 0 mm | - | - | - |
| 1777887561 | 22.22° C | 100% | 1016.5 hPa | 0 mm | - | - | - |
| 1777886840 | 22.22° C | 100% | 1016.7 hPa | 0 mm | - | - | - |
| 1777886119 | 22.78° C | 100% | 1016.5 hPa | 0 mm | - | - | - |
| 1777885399 | 22.78° C | 100% | 1016.5 hPa | 0 mm | - | - | - |
| 1777884678 | 23.33° C | 100% | 1016.7 hPa | 0 mm | - | - | - |
* Rain latest hour (hover to see other rain measurements)
** Current wind speed in m/s (hover to see current wind gust speed)